Flag for Kazakhstan Weather past 2 weeks in Astana, Kazakhstan

Now
-8 °F

Ice fog.


Feels Like: -8 °F
Forecast: -1 / 12 °F
Wind: 1 mph from East

Location: Astana

Current Time: Dec 19, 2014 at 4:35:14 AM

Latest Report: Dec 19, 2014 at 4:00 AM


Visibility: 3 mi

Pressure: 30.42 "Hg

Humidity: 84%

Dew point: -11 °F

Location of AstanaLocation

Historic Weather in Astana — Graph

°F

Astana temperature yesterday

Maximum temperature yesterday: 7 °F (at 3:30 AM)
Minimum temperature yesterday: -4 °F (at 8:00 PM)
Average temperature yesterday: 1 °F

Past Weeks' High & Low Weather Summary

 TemperatureHumidityPressure
High19 °F (Dec 12, 12:00 PM)93% (Dec 6, 10:30 PM)30.83 "Hg (Dec 6, 10:30 PM)
Low-20 °F (Dec 7, 8:30 PM)55% (Dec 10, 1:30 PM)29.74 "Hg (Dec 4, 3:00 AM)
Average6 °F81%30.47 "Hg
* Reported Dec 4 3:00 AM — Dec 19 3:30 AM, Astana, Weather by CustomWeather, © 2014

Note: Actual official high and low records may vary slightly from our data, if they occured in-between our weather recording intervals... More about our weather records

Advertising

Astana weather history for previous 24 hours

 ConditionsComfort  
Time TempWeatherWind HumidityBarometerVisibility
3:30 AM
Dec 19
-6 °FIce fog.3 mph77%30.42 "Hg3 mi
2:30 AM-8 °FIce fog.3 mph84%30.42 "Hg3 mi
2:00 AM-6 °FIce fog.3 mph84%30.42 "Hg3 mi
1:30 AM-6 °FIce fog.3 mph77%30.42 "Hg3 mi
1:00 AM-6 °FIce fog.3 mph77%30.42 "Hg3 mi
12:30 AM-6 °FIce fog.3 mph84%30.42 "Hg3 mi
12:00 AM-6 °FIce fog.3 mph84%30.42 "Hg3 mi
11:30 PM
Dec 18
-4 °FIce fog.3 mph77%30.42 "Hg3 mi
11:00 PM-2 °FIce fog.3 mph77%30.42 "Hg3 mi
10:30 PM-2 °FIce fog.3 mph84%30.42 "Hg2 mi
10:00 PM-4 °FIce fog.3 mph84%30.42 "Hg2 mi
9:30 PM-4 °FPassing clouds.6 mph84%30.42 "Hg4 mi
9:00 PM-4 °FClear.6 mph84%30.42 "Hg10 mi
8:30 PM-4 °FPassing clouds.6 mph84%30.42 "Hg6 mi
8:00 PM-4 °FPassing clouds.6 mph77%30.42 "Hg6 mi
7:30 PM-2 °FPassing clouds.8 mph84%30.42 "Hg6 mi
7:00 PM-2 °FPassing clouds.6 mph84%30.42 "Hg5 mi
6:30 PM0 °FClear.6 mph78%30.42 "Hg10 mi
6:00 PM0 °FScattered clouds.6 mph84%30.42 "Hg6 mi
5:30 PM1 °FScattered clouds.3 mph78%30.42 "Hg6 mi
5:00 PM3 °FScattered clouds.6 mph78%30.42 "Hg6 mi
4:30 PM5 °FSunny.6 mph78%30.42 "Hg10 mi
4:00 PM5 °FSunny.6 mph78%30.42 "Hg10 mi
3:30 PM7 °FSunny.3 mph78%30.42 "Hg10 mi
3:00 PM5 °FSunny.3 mph85%30.42 "Hg10 mi
2:30 PM5 °FSunny.6 mph85%30.42 "Hg10 mi
2:00 PM5 °FSunny.6 mph85%30.45 "Hg6 mi
1:30 PM5 °FSunny.3 mph85%30.45 "Hg5 mi
1:00 PM5 °FSunny.3 mph85%30.45 "Hg5 mi
12:30 PM5 °FSunny.3 mph78%30.45 "Hg5 mi
12:00 PM3 °FSunny.3 mph85%30.45 "Hg4 mi
11:30 AM1 °FSunny.3 mph85%30.45 "Hg4 mi
11:00 AM1 °FSunny.3 mph78%30.45 "Hg4 mi
10:30 AM-2 °FSunny.3 mph84%30.45 "Hg4 mi
9:30 AM0 °FPassing clouds.3 mph84%30.42 "Hg4 mi
9:00 AM-2 °FPassing clouds.3 mph84%30.42 "Hg5 mi
8:30 AM-2 °FPassing clouds.6 mph84%30.42 "HgN/A
8:00 AM0 °FPassing clouds.6 mph84%30.42 "HgN/A
7:30 AM0 °FPassing clouds.6 mph84%30.42 "HgN/A
7:00 AM-2 °FPassing clouds.3 mph84%30.42 "HgN/A
6:30 AM1 °FPassing clouds.3 mph78%30.42 "HgN/A
6:00 AM3 °FPassing clouds.6 mph85%30.42 "HgN/A
5:30 AM3 °FPassing clouds.6 mph85%30.42 "HgN/A
5:00 AM7 °FPassing clouds.3 mph85%30.42 "HgN/A
4:30 AM7 °FPassing clouds.6 mph85%30.42 "Hg6 mi
4:00 AM7 °FPassing clouds.3 mph85%30.42 "Hg6 mi
Weather by CustomWeather, © 2014

See weather overviewHow to use our weather pages